Location: Nitra
(48.3167°N, 18.0833°E)
Time: 09:41:08
(UTC+01:00)

ISS - Visible Passes

Search period start: 30 November 2023 00:00
Search period end: 10 December 2023 00:00
Orbit: 416 x 417 km, 51.6° (Epoch: 30 November)

Date Brightness Start Highest point End Pass type
(mag) Time Alt. Az. Time Alt. Az. Time Alt. Az.
30 Nov -3.8 17:30:15 10° WNW 17:33:36 70° NNE 17:34:45 37° E visible
30 Nov -0.4 19:07:13 10° W 19:07:41 13° W 19:07:41 13° W visible
01 Dec -3.6 16:41:51 10° WNW 16:45:10 56° NNE 16:48:29 10° E visible
01 Dec -2.6 18:18:40 10° WNW 18:21:30 42° SW 18:21:30 42° SW visible
02 Dec -3.5 17:30:10 10° WNW 17:33:31 66° SSW 17:35:26 23° SE visible
02 Dec -0.3 19:08:03 10° WSW 19:08:22 11° WSW 19:08:22 11° WSW visible
03 Dec -3.8 16:41:41 10° WNW 16:45:03 88° NNE 16:48:25 10° ESE visible
03 Dec -1.4 18:18:53 10° W 18:21:28 20° SW 18:22:28 18° SSW visible
04 Dec -1.9 17:30:04 10° W 17:33:05 31° SW 17:36:05 10° SSE visible
05 Dec -2.7 16:41:22 10° WNW 16:44:36 47° SSW 16:47:50 10° SE visible
06 Dec -0.6 17:30:25 10° WSW 17:32:17 14° SW 17:34:10 10° S visible
07 Dec -1.0 16:41:11 10° W 16:43:50 22° SW 16:46:28 10° SSE visible
